MDA712 RPLL-RCKH

Flight info

Callsign MDA712
Flight time 1h 22m
Altitude 36000
Route CAB2V CAB DCT 162433N1205112E DCT ESSYL B462 LAO/N0461F350 M646 ABVAR DCT 200005N1204035E DCT POTIB POTIB1A
Aircraft B738/M-SDGIJ1LRWY/SB1

Departure

Time 2026-04-22 12:45
Airport Ninoy Aquino International Airport (RPLL)

Arrival

Time 2026-04-22 14:08
Airport Kaohsiung International Airport (RCKH)
Time Latitude Longitude Altitude Speed Heading
2026-04-22 11:59 14.51089 121.01357 82 ft 0 kts 219°
2026-04-22 12:29 14.51091 121.01360 81 ft 2 kts 219°
2026-04-22 12:30 14.51114 121.01380 81 ft 2 kts 224°
2026-04-22 12:30 14.51125 121.01391 81 ft 2 kts 224°
2026-04-22 12:30 14.51134 121.01402 81 ft 2 kts 258°
2026-04-22 12:31 14.51132 121.01417 82 ft 2 kts 301°
2026-04-22 12:31 14.51122 121.01428 82 ft 1 kts 321°
2026-04-22 12:31 14.51118 121.01432 82 ft 0 kts 316°
2026-04-22 12:36 14.51118 121.01431 81 ft 0 kts 316°
2026-04-22 12:36 14.51141 121.01408 82 ft 7 kts 315°
2026-04-22 12:36 14.51169 121.01380 81 ft 0 kts 317°
2026-04-22 12:37 14.51208 121.01366 81 ft 13 kts
2026-04-22 12:37 14.51279 121.01427 81 ft 10 kts 49°
2026-04-22 12:37 14.51284 121.01433 81 ft 0 kts 48°
2026-04-22 12:37 14.51291 121.01440 81 ft 8 kts 41°
2026-04-22 12:38 14.51406 121.01393 81 ft 29 kts 315°
2026-04-22 12:38 14.51566 121.01229 82 ft 32 kts 316°
2026-04-22 12:38 14.51721 121.01069 81 ft 31 kts 315°
2026-04-22 12:38 14.51872 121.00912 81 ft 29 kts 315°
2026-04-22 12:39 14.52017 121.00763 81 ft 28 kts 315°
2026-04-22 12:39 14.52283 121.00488 82 ft 21 kts 320°
2026-04-22 12:39 14.52309 121.00429 81 ft 11 kts 150°
2026-04-22 12:40 14.52283 121.00480 81 ft 7 kts 115°
2026-04-22 12:40 14.52261 121.00512 82 ft 0 kts 137°
2026-04-22 12:45 14.52171 121.00604 82 ft 56 kts 134°
2026-04-22 12:45 14.51683 121.01106 82 ft 136 kts 135°
2026-04-22 12:45 14.50905 121.01917 469 ft 166 kts 138°
2026-04-22 12:45 14.50088 121.02645 1441 ft 160 kts 140°
2026-04-22 12:46 14.49151 121.03351 2002 ft 176 kts 144°
2026-04-22 12:46 14.48179 121.04118 2656 ft 177 kts 127°
2026-04-22 12:46 14.47411 121.05135 3276 ft 183 kts 124°
2026-04-22 12:46 14.46648 121.06195 3866 ft 193 kts 124°
2026-04-22 12:47 14.45733 121.07287 4379 ft 209 kts 134°
2026-04-22 12:47 14.44461 121.08076 4995 ft 224 kts 165°
2026-04-22 12:47 14.42402 121.07880 5994 ft 229 kts 201°
2026-04-22 12:47 14.41445 121.07385 6509 ft 231 kts 212°
2026-04-22 12:48 14.40222 121.06318 7161 ft 238 kts 230°
2026-04-22 12:48 14.39194 121.04959 7869 ft 241 kts 233°
2026-04-22 12:48 14.38165 121.03562 8518 ft 250 kts 234°
2026-04-22 12:48 14.37248 121.02016 9114 ft 260 kts 248°
2026-04-22 12:49 14.36969 121.00178 9688 ft 266 kts 281°
2026-04-22 12:49 14.37670 120.98460 10509 ft 262 kts 311°
2026-04-22 12:49 14.38923 120.97096 11234 ft 262 kts 318°
2026-04-22 12:49 14.40248 120.95814 11932 ft 265 kts 318°
2026-04-22 12:50 14.41662 120.94601 12583 ft 267 kts 328°
2026-04-22 12:50 14.43336 120.93762 13065 ft 274 kts 343°
2026-04-22 12:50 14.45247 120.93220 13479 ft 288 kts 347°
2026-04-22 12:50 14.47249 120.92728 13902 ft 304 kts 347°
2026-04-22 12:51 14.49343 120.92184 14266 ft 319 kts 346°
2026-04-22 12:51 14.51568 120.91636 14604 ft 334 kts 349°
2026-04-22 12:51 14.53940 120.91319 14949 ft 349 kts 358°
2026-04-22 12:51 14.56406 120.91334 15301 ft 363 kts
2026-04-22 12:52 14.58981 120.91528 15786 ft 371 kts
2026-04-22 12:52 14.61565 120.91782 16392 ft 375 kts
2026-04-22 12:52 14.64185 120.92047 17011 ft 379 kts
2026-04-22 12:52 14.66806 120.92300 17590 ft 383 kts
2026-04-22 12:53 14.69507 120.92544 18137 ft 387 kts
2026-04-22 12:53 14.72180 120.92773 18736 ft 391 kts
2026-04-22 12:53 14.74933 120.93001 19256 ft 395 kts
2026-04-22 12:53 14.77707 120.93226 19784 ft 399 kts
2026-04-22 12:54 14.80467 120.93449 20277 ft 403 kts
2026-04-22 12:54 14.83316 120.93678 20769 ft 407 kts
2026-04-22 12:54 14.86179 120.93910 21233 ft 411 kts
2026-04-22 12:54 14.89008 120.94181 21701 ft 414 kts
2026-04-22 12:55 14.91935 120.94548 22148 ft 418 kts
2026-04-22 12:55 14.94823 120.94953 22642 ft 421 kts
2026-04-22 12:55 14.97764 120.95382 23118 ft 424 kts
2026-04-22 12:55 15.00713 120.95812 23594 ft 427 kts
2026-04-22 12:56 15.03678 120.96241 24110 ft 429 kts
2026-04-22 12:56 15.06668 120.96668 24564 ft 432 kts
2026-04-22 12:56 15.09640 120.97087 25028 ft 435 kts
2026-04-22 12:56 15.12677 120.97511 25495 ft 437 kts
2026-04-22 12:57 15.15710 120.97933 25947 ft 440 kts
2026-04-22 12:57 15.18769 120.98356 26395 ft 442 kts
2026-04-22 12:57 15.21843 120.98781 26828 ft 445 kts
2026-04-22 12:57 15.24895 120.99202 27265 ft 447 kts
2026-04-22 12:58 15.28004 120.99630 27672 ft 450 kts
2026-04-22 12:58 15.31156 121.00063 28104 ft 452 kts
2026-04-22 12:58 15.34278 121.00493 28555 ft 453 kts
2026-04-22 12:58 15.37472 121.00934 28955 ft 456 kts
2026-04-22 12:59 15.40636 121.01370 29335 ft 458 kts
2026-04-22 12:59 15.43845 121.01788 29703 ft 461 kts
2026-04-22 12:59 15.47078 121.02061 30076 ft 462 kts
2026-04-22 12:59 15.50304 121.02029 30425 ft 464 kts 355°
2026-04-22 13:00 15.53520 121.01691 30976 ft 461 kts 351°
2026-04-22 13:00 15.56684 121.01178 31586 ft 457 kts 349°
2026-04-22 13:00 15.59817 121.00585 32065 ft 455 kts 348°
2026-04-22 13:00 15.62932 120.99960 32541 ft 454 kts 348°
2026-04-22 13:01 15.66049 120.99329 33021 ft 452 kts 348°
2026-04-22 13:01 15.69139 120.98710 33505 ft 451 kts 348°
2026-04-22 13:01 15.72228 120.98103 33952 ft 450 kts 348°
2026-04-22 13:01 15.75305 120.97509 34382 ft 449 kts 349°
2026-04-22 13:02 15.79388 120.96735 35025 ft 445 kts 349°
2026-04-22 13:02 15.81442 120.96350 35331 ft 444 kts 349°
2026-04-22 13:02 15.84487 120.95782 35742 ft 442 kts 349°
2026-04-22 13:02 15.87552 120.95214 35951 ft 444 kts 349°
2026-04-22 13:03 15.90611 120.94647 35949 ft 446 kts 349°
2026-04-22 13:03 15.96750 120.93514 35962 ft 442 kts 349°
2026-04-22 13:04 16.02822 120.92394 35971 ft 443 kts 349°
2026-04-22 13:04 16.08900 120.91271 35982 ft 442 kts 349°
2026-04-22 13:05 16.14961 120.90152 35992 ft 442 kts 349°
2026-04-22 13:05 16.21071 120.89022 36010 ft 441 kts 349°
2026-04-22 13:06 16.27114 120.87904 36040 ft 442 kts 349°
2026-04-22 13:06 16.33207 120.86775 36058 ft 441 kts 349°
2026-04-22 13:07 16.39268 120.85653 36064 ft 440 kts 349°
2026-04-22 13:07 16.45325 120.84539 36082 ft 440 kts 349°
2026-04-22 13:08 16.51385 120.83444 36088 ft 440 kts 349°
2026-04-22 13:08 16.57443 120.82353 36121 ft 439 kts 349°
2026-04-22 13:09 16.63494 120.81260 36162 ft 439 kts 349°
2026-04-22 13:09 16.69557 120.80163 36183 ft 440 kts 349°
2026-04-22 13:10 16.75622 120.79063 36217 ft 439 kts 349°
2026-04-22 13:10 16.81647 120.77970 36194 ft 439 kts 349°
2026-04-22 13:11 16.87674 120.76877 36169 ft 438 kts 349°
2026-04-22 13:11 16.93717 120.75779 36133 ft 439 kts 349°
2026-04-22 13:12 17.00723 120.74505 36082 ft 438 kts 349°
2026-04-22 13:12 17.05750 120.73590 36080 ft 438 kts 349°
2026-04-22 13:13 17.11761 120.72496 36075 ft 437 kts 349°
2026-04-22 13:13 17.17808 120.71394 36065 ft 438 kts 349°
2026-04-22 13:14 17.23823 120.70298 36055 ft 438 kts 349°
2026-04-22 13:14 17.29818 120.69204 36035 ft 437 kts 349°
2026-04-22 13:15 17.35855 120.68094 36020 ft 438 kts 349°
2026-04-22 13:15 17.41840 120.66991 36016 ft 437 kts 349°
2026-04-22 13:16 17.47877 120.65877 35994 ft 438 kts 349°
2026-04-22 13:16 17.53881 120.64769 35983 ft 438 kts 349°
2026-04-22 13:17 17.59903 120.63657 35979 ft 438 kts 349°
2026-04-22 13:17 17.65914 120.62547 35973 ft 438 kts 349°
2026-04-22 13:18 17.71912 120.61438 35961 ft 437 kts 349°
2026-04-22 13:18 17.77936 120.60326 35963 ft 438 kts 349°
2026-04-22 13:19 17.83971 120.59212 35963 ft 438 kts 349°
2026-04-22 13:19 17.89981 120.58102 35949 ft 438 kts 349°
2026-04-22 13:20 17.96000 120.56989 35934 ft 437 kts 349°
2026-04-22 13:20 18.02005 120.55878 35931 ft 438 kts 349°
2026-04-22 13:21 18.08030 120.54758 35924 ft 437 kts 349°
2026-04-22 13:21 18.14021 120.53656 35928 ft 438 kts 349°
2026-04-22 13:22 18.26609 120.53375 35922 ft 441 kts
2026-04-22 13:23 18.32740 120.53943 35765 ft 437 kts
2026-04-22 13:23 18.35792 120.54233 35172 ft 435 kts
2026-04-22 13:23 18.38793 120.54508 34906 ft 429 kts
2026-04-22 13:24 18.44820 120.55032 34912 ft 439 kts
2026-04-22 13:24 18.51012 120.55544 34912 ft 445 kts
2026-04-22 13:25 18.57176 120.56045 34908 ft 442 kts
2026-04-22 13:25 18.63309 120.56539 34906 ft 443 kts
2026-04-22 13:26 18.69482 120.57035 34903 ft 443 kts
2026-04-22 13:26 18.75646 120.57528 34896 ft 443 kts
2026-04-22 13:27 18.81794 120.58020 34891 ft 443 kts
2026-04-22 13:27 18.87961 120.58515 34887 ft 443 kts
2026-04-22 13:28 18.94110 120.59010 34889 ft 443 kts
2026-04-22 13:28 19.00306 120.59508 34885 ft 444 kts
2026-04-22 13:29 19.06504 120.60010 34890 ft 443 kts
2026-04-22 13:29 19.12686 120.60508 34898 ft 444 kts
2026-04-22 13:30 19.18844 120.61005 34903 ft 443 kts
2026-04-22 13:30 19.24986 120.61503 34901 ft 443 kts
2026-04-22 13:31 19.31185 120.62005 34898 ft 443 kts
2026-04-22 13:31 19.37315 120.62500 34902 ft 443 kts
2026-04-22 13:32 19.43514 120.63003 34900 ft 444 kts
2026-04-22 13:32 19.49652 120.63503 34897 ft 443 kts
2026-04-22 13:33 19.55848 120.64010 34891 ft 443 kts
2026-04-22 13:33 19.62045 120.64516 34891 ft 443 kts
2026-04-22 13:34 19.68200 120.65016 34886 ft 443 kts
2026-04-22 13:34 19.74368 120.65515 34885 ft 443 kts
2026-04-22 13:35 19.80568 120.66020 34885 ft 443 kts
2026-04-22 13:35 19.86719 120.66524 34884 ft 442 kts
2026-04-22 13:36 19.92896 120.67028 34883 ft 442 kts
2026-04-22 13:36 19.99079 120.67536 34886 ft 443 kts
2026-04-22 13:37 20.05231 120.68044 34883 ft 443 kts
2026-04-22 13:37 20.11389 120.68546 34884 ft 443 kts
2026-04-22 13:38 20.17560 120.69051 34883 ft 443 kts
2026-04-22 13:38 20.26795 120.69805 34883 ft 442 kts
2026-04-22 13:39 20.32967 120.70312 34884 ft 443 kts
2026-04-22 13:39 20.39139 120.70820 34884 ft 441 kts
2026-04-22 13:40 20.45301 120.71327 34884 ft 443 kts
2026-04-22 13:40 20.51459 120.71832 34883 ft 442 kts
2026-04-22 13:41 20.57640 120.72337 34884 ft 442 kts
2026-04-22 13:41 20.63774 120.72840 34884 ft 441 kts
2026-04-22 13:42 20.69928 120.73344 34883 ft 442 kts
2026-04-22 13:42 20.76039 120.73846 34884 ft 442 kts
2026-04-22 13:43 20.82221 120.74352 34885 ft 442 kts
2026-04-22 13:43 20.88400 120.74860 34883 ft 441 kts
2026-04-22 13:44 20.94548 120.75366 34885 ft 441 kts
2026-04-22 13:44 21.00686 120.75874 34881 ft 440 kts
2026-04-22 13:45 21.06808 120.76416 34874 ft 441 kts
2026-04-22 13:45 21.12940 120.76984 34867 ft 442 kts
2026-04-22 13:46 21.19118 120.77557 34869 ft 442 kts
2026-04-22 13:46 21.25266 120.78125 34513 ft 442 kts
2026-04-22 13:47 21.28328 120.78405 33239 ft 452 kts
2026-04-22 13:47 21.31468 120.78670 32132 ft 446 kts
2026-04-22 13:47 21.34538 120.78774 31319 ft 436 kts 355°
2026-04-22 13:47 21.37511 120.78472 30699 ft 422 kts 347°
2026-04-22 13:48 21.40355 120.77811 30085 ft 419 kts 343°
2026-04-22 13:48 21.43157 120.76970 29526 ft 415 kts 340°
2026-04-22 13:48 21.45906 120.76059 28978 ft 412 kts 340°
2026-04-22 13:48 21.48646 120.75120 28423 ft 409 kts 339°
2026-04-22 13:49 21.51336 120.74198 27891 ft 406 kts 339°
2026-04-22 13:49 21.54017 120.73288 27351 ft 403 kts 340°
2026-04-22 13:49 21.56655 120.72404 26826 ft 400 kts 340°
2026-04-22 13:49 21.59301 120.71526 26258 ft 390 kts 340°
2026-04-22 13:50 21.61856 120.70688 25788 ft 377 kts 340°
2026-04-22 13:50 21.64359 120.69868 25275 ft 375 kts 340°
2026-04-22 13:50 21.66846 120.69054 24761 ft 373 kts 340°
2026-04-22 13:50 21.69346 120.68237 24255 ft 371 kts 340°
2026-04-22 13:51 21.71805 120.67433 23759 ft 369 kts 340°
2026-04-22 13:51 21.74231 120.66642 23268 ft 367 kts 340°
2026-04-22 13:51 21.76668 120.65848 22776 ft 365 kts 340°
2026-04-22 13:51 21.79107 120.65052 22284 ft 363 kts 340°
2026-04-22 13:52 21.81522 120.64265 21802 ft 361 kts 340°
2026-04-22 13:52 21.83912 120.63483 21311 ft 360 kts 340°
2026-04-22 13:52 21.86323 120.62697 20816 ft 358 kts 339°
2026-04-22 13:52 21.88667 120.61814 20321 ft 355 kts 334°
2026-04-22 13:53 21.90861 120.60606 19830 ft 350 kts 324°
2026-04-22 13:53 21.92815 120.59106 19361 ft 347 kts 320°
2026-04-22 13:53 21.94687 120.57454 18872 ft 345 kts 317°
2026-04-22 13:53 21.96487 120.55779 18391 ft 343 kts 317°
2026-04-22 13:54 21.98285 120.54079 17905 ft 341 kts 317°
2026-04-22 13:54 22.00048 120.52422 17432 ft 340 kts 317°
2026-04-22 13:54 22.01844 120.50753 16958 ft 338 kts 317°
2026-04-22 13:54 22.03624 120.49116 16488 ft 337 kts 318°
2026-04-22 13:55 22.05410 120.47482 15988 ft 334 kts 318°
2026-04-22 13:55 22.07154 120.45887 15547 ft 324 kts 317°
2026-04-22 13:55 22.08894 120.44287 15128 ft 319 kts 317°
2026-04-22 13:55 22.10646 120.42669 14648 ft 318 kts 317°
2026-04-22 13:56 22.12340 120.41106 14177 ft 318 kts 317°
2026-04-22 13:56 22.14017 120.39556 13725 ft 316 kts 317°
2026-04-22 13:56 22.15679 120.38030 13280 ft 315 kts 317°
2026-04-22 13:56 22.17351 120.36492 12836 ft 313 kts 317°
2026-04-22 13:57 22.18982 120.34986 12475 ft 308 kts 317°
2026-04-22 13:57 22.20601 120.33489 12057 ft 306 kts 317°
2026-04-22 13:57 22.22203 120.32006 11631 ft 304 kts 317°
2026-04-22 13:57 22.23794 120.30519 11211 ft 302 kts 316°
2026-04-22 13:58 22.25382 120.29013 10822 ft 299 kts 316°
2026-04-22 13:58 22.26930 120.27537 10114 ft 303 kts 316°
2026-04-22 13:58 22.28541 120.26002 9208 ft 308 kts 316°
2026-04-22 13:58 22.30027 120.24599 9898 ft 267 kts 316°
2026-04-22 13:59 22.31427 120.23273 9677 ft 280 kts 316°
2026-04-22 13:59 22.32936 120.21828 9158 ft 289 kts 316°
2026-04-22 13:59 22.34411 120.20430 8900 ft 273 kts 316°
2026-04-22 13:59 22.35797 120.19117 8587 ft 264 kts 316°
2026-04-22 14:00 22.37175 120.17807 8216 ft 264 kts 316°
2026-04-22 14:00 22.38541 120.16505 7890 ft 261 kts 316°
2026-04-22 14:00 22.39914 120.15198 7551 ft 259 kts 316°
2026-04-22 14:00 22.41269 120.13914 7218 ft 258 kts 316°
2026-04-22 14:01 22.42610 120.12641 6888 ft 257 kts 315°
2026-04-22 14:01 22.43951 120.11363 6558 ft 256 kts 315°
2026-04-22 14:01 22.45283 120.10101 6228 ft 255 kts 316°
2026-04-22 14:01 22.46723 120.08989 5888 ft 257 kts 331°
2026-04-22 14:02 22.48473 120.08546 5573 ft 261 kts 356°
2026-04-22 14:02 22.50301 120.08666 5259 ft 260 kts
2026-04-22 14:02 22.52102 120.08862 4929 ft 258 kts
2026-04-22 14:02 22.53883 120.09003 4603 ft 253 kts
2026-04-22 14:03 22.55594 120.09216 4469 ft 236 kts
2026-04-22 14:03 22.57044 120.09886 4413 ft 224 kts 37°
2026-04-22 14:03 22.57967 120.11196 4203 ft 220 kts 66°
2026-04-22 14:03 22.58362 120.12826 3764 ft 226 kts 84°
2026-04-22 14:04 22.58393 120.14510 3418 ft 225 kts 94°
2026-04-22 14:04 22.58281 120.16174 3105 ft 219 kts 94°
2026-04-22 14:04 22.58217 120.17776 2875 ft 208 kts 92°
2026-04-22 14:04 22.58186 120.19333 2546 ft 207 kts 92°
2026-04-22 14:05 22.58143 120.20867 2285 ft 198 kts 92°
2026-04-22 14:05 22.58096 120.22266 2036 ft 181 kts 92°
2026-04-22 14:05 22.58022 120.24789 1622 ft 159 kts 93°
2026-04-22 14:06 22.57982 120.25993 1387 ft 160 kts 93°
2026-04-22 14:06 22.57948 120.27190 1186 ft 156 kts 92°
2026-04-22 14:06 22.57915 120.28343 981 ft 153 kts 93°
2026-04-22 14:06 22.57877 120.29492 785 ft 154 kts 92°
2026-04-22 14:07 22.57842 120.30640 587 ft 152 kts 92°
2026-04-22 14:07 22.57806 120.31770 391 ft 150 kts 92°
2026-04-22 14:07 22.57775 120.32906 207 ft 150 kts 93°
2026-04-22 14:07 22.57730 120.34030 34 ft 144 kts 93°
2026-04-22 14:08 22.57699 120.34901 34 ft 84 kts 89°
2026-04-22 14:08 22.57694 120.35371 33 ft 50 kts 91°
2026-04-22 14:08 22.57686 120.35671 33 ft 32 kts 91°
2026-04-22 14:08 22.57679 120.35850 31 ft 14 kts 98°
2026-04-22 14:09 22.57617 120.35914 32 ft 6 kts 171°
2026-04-22 14:09 22.57579 120.35915 34 ft 5 kts 181°
2026-04-22 14:09 22.57545 120.35910 35 ft 8 kts 201°
2026-04-22 14:09 22.57512 120.35834 36 ft 15 kts 272°
2026-04-22 14:10 22.57518 120.35687 32 ft 23 kts 271°
2026-04-22 14:10 22.57523 120.35511 33 ft 23 kts 271°
2026-04-22 14:10 22.57529 120.35340 32 ft 22 kts 272°
2026-04-22 14:10 22.57534 120.35171 32 ft 22 kts 270°
2026-04-22 14:11 22.57539 120.35017 37 ft 18 kts 272°
2026-04-22 14:11 22.57542 120.34898 41 ft 14 kts 271°
2026-04-22 14:11 22.57546 120.34791 40 ft 15 kts 271°
2026-04-22 14:11 22.57547 120.34670 38 ft 13 kts 259°
2026-04-22 14:12 22.57479 120.34618 37 ft 13 kts 183°
2026-04-22 14:12 22.57396 120.34594 36 ft 12 kts 236°
2026-04-22 14:12 22.57395 120.34496 34 ft 14 kts 273°
2026-04-22 14:12 22.57398 120.34373 26 ft 18 kts 271°
2026-04-22 14:13 22.57405 120.34221 20 ft 21 kts 272°
2026-04-22 14:13 22.57407 120.34112 20 ft 10 kts 270°
2026-04-22 14:13 22.57389 120.34066 24 ft 3 kts 224°
2026-04-22 14:13 22.57353 120.34051 29 ft 7 kts 185°
2026-04-22 14:14 22.57326 120.34055 32 ft 2 kts 143°
2026-04-22 14:14 22.57323 120.34109 32 ft 3 kts 88°
2026-04-22 14:14 22.57322 120.34132 31 ft 0 kts 92°